Hourly Weather Bolshie Koryaki

Today, 23 June, Wednesday

Time Temperature Precipitation Wind Pressure Humidity
00:00 +21°C° 0 mm 2 mps 747 mmHg 85%
01:00 +21°C° 0 mm 2 mps 747 mmHg 89%
02:00 +21°C° 0 mm 2 mps 748 mmHg 92%
03:00 +21°C° 0 mm 2 mps 748 mmHg 91%
04:00 +21°C° 0 mm 2 mps 748 mmHg 90%
05:00 +23°C° 0 mm 1 mps 748 mmHg 89%
06:00 +25°C° 0 mm 2 mps 748 mmHg 82%
07:00 +27°C° 0 mm 3 mps 748 mmHg 74%
08:00 +29°C° 0 mm 3 mps 748 mmHg 66%
09:00 +30°C° 0 mm 3 mps 748 mmHg 59%
10:00 +32°C° 0 mm 4 mps 748 mmHg 52%
11:00 +34°C° 0 mm 4 mps 749 mmHg 45%
12:00 +34°C° 0 mm 4 mps 749 mmHg 43%
13:00 +35°C° 0 mm 4 mps 748 mmHg 42%
14:00 +35°C° 0 mm 4 mps 748 mmHg 40%
15:00 +34°C° 0 mm 4 mps 748 mmHg 43%
16:00 +34°C° 0 mm 3 mps 748 mmHg 46%
17:00 +34°C° 0 mm 2 mps 748 mmHg 50%
18:00 +31°C° 0 mm 2 mps 748 mmHg 59%
19:00 +29°C° 0 mm 2 mps 748 mmHg 68%
20:00 +27°C° 0 mm 2 mps 748 mmHg 77%
21:00 +26°C° 0 mm 1 mps 748 mmHg 78%
22:00 +25°C° 0 mm 1 mps 748 mmHg 80%
23:00 +24°C° 0 mm 1 mps 748 mmHg 82%

Tomorrow, 24 June, Thursday

Time Temperature Precipitation Wind Pressure Humidity
00:00 +23°C° 0 mm 1 mps 748 mmHg 82%
01:00 +23°C° 0 mm 2 mps 748 mmHg 83%
02:00 +23°C° 0 mm 2 mps 748 mmHg 83%
03:00 +23°C° 0 mm 1 mps 748 mmHg 83%
04:00 +23°C° 0 mm 1 mps 748 mmHg 83%
05:00 +24°C° 0 mm 1 mps 748 mmHg 83%
06:00 +25°C° 0 mm 1 mps 748 mmHg 77%
07:00 +27°C° 0 mm 1 mps 748 mmHg 71%
08:00 +29°C° 0 mm 2 mps 748 mmHg 66%
09:00 +30°C° 0 mm 2 mps 748 mmHg 60%
10:00 +32°C° 0 mm 2 mps 748 mmHg 54%
11:00 +34°C° 0 mm 3 mps 748 mmHg 48%
12:00 +34°C° 0 mm 3 mps 748 mmHg 46%
13:00 +35°C° 0 mm 3 mps 748 mmHg 44%
14:00 +35°C° 0 mm 3 mps 748 mmHg 41%
15:00 +35°C° 0 mm 3 mps 747 mmHg 44%
16:00 +34°C° 0 mm 3 mps 747 mmHg 46%
17:00 +34°C° 0 mm 3 mps 746 mmHg 49%
18:00 +31°C° 0 mm 2 mps 746 mmHg 58%
19:00 +29°C° 0 mm 2 mps 746 mmHg 67%
20:00 +27°C° 0 mm 1 mps 746 mmHg 76%
21:00 +25°C° 0.5 mm 2 mps 746 mmHg 81%
22:00 +24°C° 0.5 mm 2 mps 746 mmHg 86%
23:00 +21°C° 0.5 mm 2 mps 746 mmHg 91%

Day after tomorrow, 25 June, Friday

Time Temperature Precipitation Wind Pressure Humidity
00:00 +21°C° 0.9 mm 2 mps 746 mmHg 93%
01:00 +20°C° 0.9 mm 2 mps 746 mmHg 95%
02:00 +20°C° 0.9 mm 2 mps 746 mmHg 97%
03:00 +20°C° 0.1 mm 2 mps 746 mmHg 97%
04:00 +21°C° 0.1 mm 2 mps 745 mmHg 96%
05:00 +21°C° 0.1 mm 2 mps 745 mmHg 96%
06:00 +24°C° 0 mm 2 mps 745 mmHg 88%
07:00 +26°C° 0 mm 3 mps 745 mmHg 79%
08:00 +28°C° 0 mm 3 mps 745 mmHg 71%
09:00 +30°C° 0.1 mm 3 mps 745 mmHg 65%
10:00 +32°C° 0.1 mm 4 mps 745 mmHg 59%
11:00 +33°C° 0.1 mm 4 mps 745 mmHg 54%
12:00 +33°C° 0.1 mm 4 mps 745 mmHg 51%
13:00 +34°C° 0.1 mm 3 mps 745 mmHg 49%
14:00 +34°C° 0.1 mm 3 mps 745 mmHg 47%
15:00 +34°C° 0 mm 3 mps 745 mmHg 49%
16:00 +33°C° 0 mm 4 mps 744 mmHg 51%
17:00 +33°C° 0 mm 4 mps 744 mmHg 53%
18:00 +28°C° 0.7 mm 3 mps 744 mmHg 66%
19:00 +24°C° 0.7 mm 2 mps 744 mmHg 78%
20:00 +20°C° 0.7 mm 1 mps 744 mmHg 91%
21:00 +18°C° 0.3 mm 2 mps 744 mmHg 92%
22:00 +18°C° 0.3 mm 2 mps 744 mmHg 93%
23:00 +18°C° 0.3 mm 2 mps 744 mmHg 95%

26 June, Saturday

Time Temperature Precipitation Wind Pressure Humidity
00:00 +18°C° 0.6 mm 2 mps 744 mmHg 95%
01:00 +18°C° 0.6 mm 2 mps 744 mmHg 96%
02:00 +19°C° 0.6 mm 1 mps 744 mmHg 97%
03:00 +20°C° 0 mm 1 mps 743 mmHg 96%
04:00 +20°C° 0 mm 1 mps 743 mmHg 96%
05:00 +21°C° 0 mm 1 mps 743 mmHg 96%
06:00 +22°C° 0 mm 1 mps 743 mmHg 90%
07:00 +24°C° 0 mm 1 mps 743 mmHg 83%
08:00 +26°C° 0 mm 2 mps 743 mmHg 77%
09:00 +28°C° 0 mm 2 mps 743 mmHg 68%
10:00 +29°C° 0 mm 2 mps 743 mmHg 60%
11:00 +31°C° 0 mm 2 mps 743 mmHg 51%
12:00 +32°C° 0 mm 2 mps 743 mmHg 50%
13:00 +33°C° 0 mm 3 mps 743 mmHg 49%
14:00 +33°C° 0 mm 3 mps 743 mmHg 48%
15:00 +33°C° 0.1 mm 3 mps 743 mmHg 50%
16:00 +31°C° 0.1 mm 3 mps 743 mmHg 52%
17:00 +31°C° 0.1 mm 2 mps 743 mmHg 54%
18:00 +29°C° 0.4 mm 2 mps 743 mmHg 66%
19:00 +26°C° 0.4 mm 2 mps 743 mmHg 77%
20:00 +24°C° 0.4 mm 2 mps 743 mmHg 88%
21:00 +23°C° 0.5 mm 2 mps 742 mmHg 91%
22:00 +22°C° 0.5 mm 1 mps 742 mmHg 94%
23:00 +21°C° 0.5 mm 1 mps 742 mmHg 97%

27 June, Sunday

Time Temperature Precipitation Wind Pressure Humidity
00:00 +21°C° 0.2 mm 1 mps 742 mmHg 97%
01:00 +21°C° 0.2 mm 1 mps 742 mmHg 97%
02:00 +20°C° 0.2 mm 2 mps 743 mmHg 98%
03:00 +20°C° 0.3 mm 2 mps 743 mmHg 98%
04:00 +21°C° 0.3 mm 1 mps 743 mmHg 98%
05:00 +21°C° 0.3 mm 1 mps 743 mmHg 98%
06:00 +20°C° 0 mm 2 mps 743 mmHg 93%
07:00 +21°C° 0 mm 2 mps 743 mmHg 89%
08:00 +23°C° 0 mm 2 mps 743 mmHg 84%
09:00 +25°C° 0 mm 2 mps 743 mmHg 76%
10:00 +26°C° 0 mm 2 mps 743 mmHg 68%
11:00 +27°C° 0 mm 2 mps 743 mmHg 60%
12:00 +27°C° 0 mm 2 mps 743 mmHg 61%
13:00 +27°C° 0 mm 3 mps 743 mmHg 63%
14:00 +27°C° 0 mm 3 mps 743 mmHg 65%
15:00 +26°C° 0.1 mm 3 mps 743 mmHg 66%
16:00 +26°C° 0.1 mm 3 mps 743 mmHg 67%
17:00 +26°C° 0.1 mm 3 mps 743 mmHg 68%
18:00 +25°C° 0.1 mm 3 mps 743 mmHg 73%
19:00 +24°C° 0.1 mm 2 mps 743 mmHg 78%
20:00 +21°C° 0.1 mm 2 mps 743 mmHg 84%
21:00 +20°C° 0 mm 2 mps 743 mmHg 86%
22:00 +19°C° 0 mm 2 mps 743 mmHg 88%
23:00 +18°C° 0 mm 3 mps 744 mmHg 90%

28 June, Monday

Time Temperature Precipitation Wind Pressure Humidity
00:00 +18°C° 0 mm 2 mps 744 mmHg 92%
01:00 +17°C° 0 mm 2 mps 744 mmHg 94%
02:00 +17°C° 0 mm 2 mps 744 mmHg 97%
03:00 +17°C° 0 mm 2 mps 744 mmHg 96%
04:00 +17°C° 0 mm 2 mps 744 mmHg 94%
05:00 +18°C° 0 mm 1 mps 744 mmHg 93%
06:00 +20°C° 0 mm 1 mps 744 mmHg 86%
07:00 +20°C° 0 mm 2 mps 744 mmHg 78%
08:00 +23°C° 0 mm 2 mps 744 mmHg 71%
09:00 +24°C° 0 mm 2 mps 744 mmHg 66%
10:00 +25°C° 0 mm 2 mps 744 mmHg 62%
11:00 +26°C° 0 mm 2 mps 744 mmHg 57%
12:00 +26°C° 0 mm 3 mps 744 mmHg 55%
13:00 +27°C° 0 mm 3 mps 744 mmHg 53%
14:00 +27°C° 0 mm 3 mps 744 mmHg 51%
15:00 +27°C° 0 mm 3 mps 744 mmHg 52%
16:00 +27°C° 0 mm 2 mps 744 mmHg 53%
17:00 +26°C° 0 mm 2 mps 743 mmHg 54%
18:00 +25°C° 0 mm 2 mps 743 mmHg 61%
19:00 +23°C° 0 mm 2 mps 743 mmHg 67%
20:00 +21°C° 0 mm 2 mps 743 mmHg 74%
21:00 +20°C° 0 mm 2 mps 743 mmHg 75%
22:00 +19°C° 0 mm 2 mps 743 mmHg 76%
23:00 +18°C° 0 mm 2 mps 743 mmHg 77%
Show more